Tracking 19176 objects as of 26-May-2018
HD Live streaming from Space Station
objects crossing your sky now

RIGIDSPHERE 2 (LCS 4)

Track RIGIDSPHERE 2 (LCS 4) now!
10-day predictions
RIGIDSPHERE 2 (LCS 4) is classified as:


NORAD ID: 5398
Int'l Code: 1971-067E
Perigee: 742.7 km
Apogee: 830.4 km
Inclination: 87.6 °
Period: 100.4 minutes
Semi major axis: 7157 km
RCS: 0.9311 m2 (medium)
Launch date: August 7, 1971
Source: United States (US)
Launch site: AIR FORCE WESTERN TEST RANGE (AFWTR)
aabbcc
Your satellite tracking list
Your tracking list is empty




NASA's NSSDC Master Catalog

Two Line Element Set (TLE):
1  5398U 71067E   18145.58857233 +.00000145 +00000-0 +45065-4 0  9990
2  5398 087.6235 072.0750 0061299 236.9368 122.5933 14.33696007451625
Source of the keplerian elements: AFSPC